EW3139 Weather Reports


time (UTC)temp
F
wind
direction
speed
knots
gust
knots
rain 1hr
in
rain 24hr
in
rain mn
in
humidity
%
barometer
mb
20260506104004 48 261 5.2 13.0 0.00 0.00 0.00 42 1009.3
20260506103506 47 258 6.1 13.0 0.00 0.00 0.00 42 1009.2
20260506103004 47 248 7.0 18.2 0.00 0.00 0.00 43 1009.2
20260506102505 47 253 7.8 18.2 0.00 0.00 0.00 43 1009.3
20260506102004 47 265 6.1 17.4 0.00 0.00 0.00 42 1009.2
20260506101503 47 257 7.0 13.9 0.00 0.00 0.00 43 1009.0
20260506100504 48 259 5.2 15.6 0.00 0.00 0.00 41 1009.2
20260506100005 48 248 4.3 10.4 0.00 0.00 0.00 41 1009.0
20260506095503 47 258 5.2 12.2 0.00 0.00 0.00 42 1008.9
20260506095003 47 268 5.2 13.0 0.00 0.00 0.00 42 1008.8
20260506094505 47 267 4.3 13.9 0.00 0.00 0.00 44 1008.8
20260506094004 47 267 5.2 13.9 0.00 0.00 0.00 44 1008.8
20260506093005 46 250 7.0 15.6 0.00 0.00 0.00 44 1008.6
20260506092504 46 264 6.1 15.6 0.00 0.00 0.00 45 1008.6
20260506092005 46 263 6.1 15.6 0.00 0.00 0.00 44 1008.6
20260506091504 46 248 6.1 15.6 0.00 0.00 0.00 44 1008.4
20260506091005 46 240 7.0 14.8 0.00 0.00 0.00 44 1008.5
20260506090504 46 252 6.1 15.6 0.00 0.00 0.00 46 1008.5
20260506090005 45 252 7.0 17.4 0.00 0.00 0.00 47 1008.4
20260506085504 45 256 7.0 17.4 0.00 0.00 0.00 48 1008.4
20260506085006 45 262 7.8 13.9 0.00 0.00 0.00 48 1008.3
20260506084004 44 259 6.1 14.8 0.00 0.00 0.00 49 1008.3
20260506083505 44 252 7.8 14.8 0.00 0.00 0.00 50 1008.3
20260506083004 44 247 8.7 13.9 0.00 0.00 0.00 49 1008.3
20260506082505 44 248 7.0 13.0 0.00 0.00 0.00 48 1008.3
20260506082004 45 252 4.3 12.2 0.00 0.00 0.00 48 1008.3
20260506081503 45 264 4.3 13.9 0.00 0.00 0.00 49 1008.2
20260506081006 44 262 5.2 13.9 0.00 0.00 0.00 49 1008.2
20260506080504 44 258 6.1 13.0 0.00 0.00 0.00 51 1008.1
20260506073505 43 243 5.2 16.5 0.00 0.00 0.00 53 1007.8
20260506073004 43 249 6.1 16.5 0.00 0.00 0.00 53 1007.9
20260506072505 44 262 4.3 11.3 0.00 0.00 0.00 53 1007.8
20260506072004 44 261 4.3 13.9 0.00 0.00 0.00 54 1007.7
20260506071505 43 253 5.2 13.9 0.00 0.00 0.00 56 1007.7
20260506071004 43 246 6.1 13.0 0.00 0.00 0.00 56 1007.7
20260506070507 43 240 7.0 13.0 0.00 0.00 0.00 56 1007.6
20260506062004 41 239 5.2 13.0 0.00 0.00 0.00 61 1007.3
20260506061004 41 254 4.3 13.0 0.00 0.00 0.00 63 1007.1
20260506060505 40 243 5.2 13.0 0.00 0.00 0.00 63 1007.2
20260506051005 38 270 4.3 12.2 0.00 0.00 0.00 71 1006.7
20260506050503 38 267 5.2 12.2 0.00 0.00 0.00 71 1006.7
20260506045003 37 252 3.5 8.7 0.00 0.00 0.00 74 1006.6
20260506044006 37 258 4.3 10.4 0.00 0.00 0.00 74 1006.6
20260506043504 36 256 4.3 10.4 0.00 0.00 0.00 74 1006.6
20260506043005 36 254 4.3 9.6 0.00 0.00 0.00 74 1006.5
20260506042504 36 254 4.3 9.6 0.00 0.00 0.00 75 1006.5
20260506041504 35 254 4.3 8.7 0.00 0.00 0.00 76 1006.4
20260506040005 35 244 4.3 11.3 0.00 0.00 0.00 76 1006.2
20260506035504 35 244 3.5 11.3 0.00 0.00 0.00 76 1006.2
20260506035005 35 242 3.5 8.7 0.00 0.00 0.00 77 1006.2
20260506034504 35 242 4.3 8.7 0.00 0.00 0.00 77 1006.1
20260506034005 35 245 4.3 7.8 0.00 0.00 0.00 77 1006.0
20260506033504 34 243 3.5 8.7 0.00 0.00 0.00 78 1006.0
20260506033007 34 245 3.5 9.6 0.00 0.00 0.00 78 1005.8
20260506032504 34 250 3.5 9.6 0.00 0.00 0.00 78 1005.9
20260506031004 34 243 3.5 7.8 0.00 0.00 0.00 80 1005.7
20260506030505 33 242 3.5 7.0 0.00 0.00 0.00 80 1005.6
20260506030004 33 242 2.6 8.7 0.00 0.00 0.00 80 1005.5
20260506025504 33 235 2.6 8.7 0.00 0.00 0.00 80 1005.6
20260506025006 33 232 2.6 7.8 0.00 0.00 0.00 80 1005.6
20260506024504 33 237 2.6 7.8 0.00 0.00 0.00 80 1005.5
20260506023004 33 231 2.6 7.8 0.00 0.00 0.00 81 1005.4
20260506022505 33 229 2.6 7.8 0.00 0.00 0.00 81 1005.4
20260506022004 33 233 2.6 6.1 0.00 0.00 0.00 81 1005.3
20260506021505 33 238 2.6 6.1 0.00 0.00 0.00 81 1005.3
20260506021004 33 248 1.7 5.2 0.00 0.00 0.00 81 1005.3
20260506020504 33 238 2.6 7.8 0.00 0.00 0.00 81 1005.3
20260506020006 33 237 2.6 7.8 0.00 0.00 0.00 81 1005.2
20260506015504 33 244 2.6 6.1 0.00 0.00 0.00 81 1005.2
20260506015005 33 249 2.6 5.2 0.00 0.00 0.00 81 1005.2
20260506014504 33 259 1.7 6.1 0.00 0.00 0.00 81 1005.1
20260506014006 33 258 2.6 6.1 0.00 0.00 0.00 80 1005.1
20260506013004 33 236 1.7 4.3 0.00 0.00 0.00 80 1005.0
20260506012004 33 240 1.7 7.0 0.00 0.00 0.00 80 1004.9
20260506011004 33 244 2.6 6.1 0.00 0.00 0.00 79 1004.8
20260506010505 33 244 2.6 6.1 0.00 0.00 0.00 79 1004.8
20260506010004 33 246 1.7 6.1 0.00 0.00 0.00 78 1004.7
20260506005004 34 247 1.7 5.2 0.00 0.00 0.00 77 1004.6
20260506004505 34 252 1.7 3.5 0.00 0.00 0.00 77 1004.5
20260506004004 34 241 2.6 5.2 0.00 0.00 0.00 76 1004.5
20260506003505 34 229 2.6 5.2 0.00 0.00 0.00 76 1004.5
20260506003004 34 227 2.6 5.2 0.00 0.00 0.00 75 1004.5
20260506002505 34 231 2.6 4.3 0.00 0.00 0.00 74 1004.4
20260506002004 35 230 2.6 7.0 0.00 0.00 0.00 74 1004.4
20260506001505 35 234 2.6 7.0 0.00 0.00 0.00 73 1004.4
20260506001004 35 231 1.7 4.3 0.00 0.00 0.00 72 1004.3
20260506000505 35 218 1.7 4.3 0.00 0.00 0.00 71 1004.2
20260506000004 36 218 1.7 4.3 0.00 0.00 0.00 70 1004.2
20260505235506 36 228 2.6 6.1 0.00 0.00 0.00 69 1004.1
20260505235005 37 231 2.6 6.1 0.00 0.00 0.00 68 1004.1
20260505234504 37 229 3.5 7.0 0.00 0.00 0.00 68 1004.2
20260505234004 37 240 3.5 7.8 0.00 0.00 0.00 68 1004.0
20260505233505 37 258 2.6 7.8 0.00 0.00 0.00 68 1004.0
20260505231004 36 240 2.6 7.8 0.00 0.00 0.00 72 1003.9
20260505230004 36 244 3.5 7.8 0.00 0.00 0.00 74 1003.9
20260505225505 35 240 3.5 7.0 0.00 0.00 0.00 75 1003.9
20260505224504 35 237 3.5 7.8 0.00 0.00 0.00 75 1003.9
20260505224005 35 232 3.5 9.6 0.00 0.00 0.00 75 1004.0
20260505223504 36 235 3.5 9.6 0.00 0.00 0.00 75 1003.9
20260505223005 36 237 3.5 7.0 0.00 0.00 0.00 75 1003.9
20260505222504 36 229 3.5 7.0 0.00 0.00 0.00 75 1003.9
20260505222005 36 228 2.6 7.0 0.00 0.00 0.00 74 1003.9
20260505221504 36 229 2.6 7.0 0.00 0.00 0.00 74 1003.9
20260505221004 36 219 2.6 7.0 0.00 0.00 0.00 74 1003.9
20260505220505 36 215 2.6 6.1 0.00 0.00 0.00 73 1003.8
20260505220005 36 208 3.5 7.8 0.00 0.00 0.00 73 1003.7
20260505215504 36 203 3.5 7.8 0.00 0.00 0.00 72 1003.7
20260505214505 37 204 3.5 7.0 0.00 0.00 0.00 72 1003.6
20260505214004 37 207 3.5 7.0 0.00 0.00 0.00 71 1003.6
20260505213505 37 215 2.6 6.1 0.00 0.00 0.00 71 1003.6
20260505213004 37 214 2.6 5.2 0.00 0.00 0.00 71 1003.5
20260505212505 37 212 2.6 7.0 0.00 0.00 0.00 71 1003.5
20260505212004 37 222 3.5 7.8 0.00 0.00 0.00 70 1003.5
20260505211506 37 226 2.6 7.8 0.00 0.00 0.00 71 1003.5
20260505211004 37 217 2.6 6.1 0.00 0.00 0.00 70 1003.4
20260505210505 37 205 2.6 6.1 0.00 0.00 0.00 70 1003.5
20260505210006 38 205 2.6 6.1 0.00 0.00 0.00 69 1003.5
20260505205506 38 215 2.6 7.0 0.00 0.00 0.00 69 1003.4
20260505205004 38 215 3.5 7.0 0.00 0.00 0.00 68 1003.4
20260505204506 38 210 2.6 7.0 0.00 0.00 0.00 68 1003.4
20260505204004 38 221 2.6 7.0 0.00 0.00 0.00 67 1003.4
20260505203506 38 219 2.6 7.8 0.00 0.00 0.00 67 1003.4
20260505203004 38 211 2.6 7.8 0.00 0.00 0.00 66 1003.3
20260505202506 38 207 3.5 8.7 0.00 0.00 0.00 66 1003.3
20260505202004 39 206 3.5 8.7 0.00 0.00 0.00 65 1003.2
20260505201505 39 207 3.5 7.0 0.00 0.00 0.00 64 1003.2
20260505200506 39 219 1.7 5.2 0.00 0.00 0.00 61 1003.2
20260505200004 39 224 1.7 3.5 0.00 0.00 0.00 61 1003.2
20260505195506 40 224 1.7 5.2 0.00 0.00 0.00 60 1003.2
20260505195004 40 223 1.7 5.2 0.00 0.00 0.00 60 1003.2
20260505194506 40 231 1.7 4.3 0.00 0.00 0.00 59 1003.1
20260505194004 40 231 1.7 4.3 0.00 0.00 0.00 58 1003.2
20260505193506 41 221 1.7 4.3 0.00 0.00 0.00 57 1003.2
20260505193004 41 219 1.7 5.2 0.00 0.00 0.00 56 1003.1
20260505191506 42 246 2.6 7.8 0.00 0.00 0.00 54 1003.1
20260505191004 42 246 3.5 7.8 0.00 0.00 0.00 53 1003.1
20260505190506 42 237 4.3 10.4 0.00 0.00 0.00 53 1003.0
20260505190004 42 239 3.5 10.4 0.00 0.00 0.00 53 1003.1
20260505185506 42 244 3.5 6.1 0.00 0.00 0.00 52 1003.0
20260505185004 43 239 3.5 6.1 0.00 0.00 0.00 52 1003.0
20260505184506 43 235 3.5 7.0 0.00 0.00 0.00 51 1002.9
20260505184004 43 238 3.5 8.7 0.00 0.01 0.00 51 1002.9
20260505183508 43 237 3.5 8.7 0.00 0.01 0.00 50 1002.9
20260505183004 44 245 3.5 6.1 0.00 0.02 0.00 50 1002.8
20260505182506 44 264 3.5 8.7 0.00 0.02 0.00 49 1002.7
20260505182004 44 259 4.3 10.4 0.00 0.02 0.00 48 1002.7
20260505181506 44 253 4.3 10.4 0.00 0.02 0.00 47 1002.7
20260505181004 44 249 4.3 10.4 0.00 0.02 0.00 47 1002.7
20260505180004 45 258 4.3 8.7 0.00 0.02 0.00 46 1002.6
20260505175004 45 256 4.3 11.3 0.00 0.02 0.00 46 1002.5
20260505173506 46 257 5.2 11.3 0.00 0.02 0.00 45 1002.4
20260505173004 46 258 5.2 11.3 0.00 0.02 0.00 44 1002.4
20260505172506 46 260 5.2 11.3 0.00 0.02 0.00 43 1002.4
20260505172004 47 258 6.1 15.6 0.00 0.02 0.00 43 1002.3
20260505171506 47 249 6.1 15.6 0.00 0.02 0.00 42 1002.3
20260505170506 47 254 4.3 10.4 0.00 0.02 0.00 40 1002.2
20260505170004 48 254 5.2 12.2 0.00 0.02 0.00 40 1002.2
20260505165506 48 249 6.1 13.9 0.00 0.02 0.00 40 1002.2
20260505165004 48 246 6.1 13.9 0.00 0.02 0.00 40 1002.2
20260505164506 48 252 6.1 13.0 0.00 0.02 0.00 39 1002.2
20260505164004 48 263 6.1 19.1 0.00 0.02 0.00 39 1002.1
20260505163506 49 264 5.2 19.1 0.00 0.02 0.00 37 1002.1
20260505162506 49 261 3.5 12.2 0.00 0.02 0.00 39 1002.0
20260505162006 49 266 2.6 12.2 0.00 0.02 0.00 39 1002.0
20260505161506 49 273 3.5 10.4 0.00 0.02 0.00 39 1002.0
20260505161004 49 273 5.2 13.0 0.00 0.02 0.00 37 1001.9
20260505160506 49 272 4.3 13.0 0.00 0.02 0.00 37 1002.0
20260505153006 49 273 2.6 13.0 0.00 0.02 0.00 35 1001.7
20260505152504 49 272 3.5 13.0 0.00 0.02 0.00 35 1001.7
20260505152006 49 281 2.6 11.3 0.00 0.02 0.00 35 1001.7
20260505151504 49 314 1.7 10.4 0.00 0.02 0.00 34 1001.7
20260505151006 50 310 1.7 8.7 0.00 0.02 0.00 34 1001.6
20260505140506 50 283 3.5 10.4 0.00 0.02 0.00 38 1001.2
20260505125005 49 279 5.2 14.8 0.00 0.02 0.00 40 1000.8
20260505124504 49 271 6.1 14.8 0.00 0.02 0.00 38 1000.8
20260505124006 49 280 3.5 10.4 0.00 0.02 0.00 38 1000.7
20260505123504 49 275 4.3 13.9 0.00 0.02 0.00 40 1000.6
20260505123006 49 262 5.2 13.9 0.00 0.02 0.00 38 1000.4
20260505122504 49 261 5.2 15.6 0.00 0.02 0.00 42 1000.4
20260505122006 49 276 5.2 15.6 0.00 0.02 0.00 39 1000.5
20260505121006 48 265 6.1 16.5 0.00 0.02 0.00 40 1000.3
20260505120505 48 270 6.1 17.4 0.00 0.02 0.00 39 1000.3
20260505120006 48 281 5.2 17.4 0.00 0.02 0.00 39 1000.3
20260505115504 48 270 6.1 15.6 0.00 0.02 0.00 39 1000.3
20260505115006 48 265 7.0 15.6 0.00 0.02 0.00 39 1000.2
20260505114504 48 270 7.0 19.1 0.00 0.02 0.00 39 1000.2
20260505114006 48 278 4.3 19.1 0.00 0.02 0.00 39 1000.2
20260505113008 48 276 4.3 16.5 0.00 0.02 0.00 38 1000.1
20260505112504 48 268 5.2 13.9 0.00 0.02 0.00 38 999.9
20260505112004 48 269 5.2 13.9 0.00 0.02 0.00 38 999.9
20260505111506 48 286 3.5 10.4 0.00 0.02 0.00 38 999.8
20260505111004 47 306 2.6 10.4 0.00 0.02 0.00 38 999.8
20260505110504 47 300 2.6 11.3 0.00 0.02 0.00 39 999.8